Location: *
(28.3744°N, 81.5492°W)
Time: 04:08:58
(UTC+00:00)

Cosmos 2315 Rocket - Pass Details

Date: 15 June 2025
Orbit: 966 x 1000 km, 82.9° (Epoch: 11 July)

Event Time Altitude Azimuth Distance (km) Brightness Sun altitude
Rises 09:34:56 0° 346° (NNW) 3,691 7.3 -11.0°
Reaches altitude 10° 09:37:32 10° 340° (NNW) 2,745 6.5 -10.5°
Maximum altitude 09:43:29 46° 269° (W) 1,308 4.3 -9.4°
Drops below altitude 10° 09:49:28 10° 198° (SSW) 2,753 5.9 -8.3°
Sets 09:52:05 0° 193° (SSW) 3,702 6.6 -7.8°
